TimeEST,TemperatureF,Dew PointF,Humidity,Sea Level PressureIn,VisibilityMPH,Wind Direction,Wind SpeedMPH,Gust SpeedMPH,PrecipitationIn,Events,Conditions,WindDirDegrees,DateUTC
12:54 AM,55.9,53.1,90,29.66,10.0,WSW,10.4,-,N/A,,Overcast,250,2012-12-18 05:54:00
1:54 AM,54.0,51.1,90,29.65,10.0,WSW,8.1,-,N/A,,Mostly Cloudy,240,2012-12-18 06:54:00
2:54 AM,52.0,50.0,93,29.65,10.0,SSW,4.6,-,N/A,,Partly Cloudy,200,2012-12-18 07:54:00
3:54 AM,50.0,48.9,96,29.64,8.0,SW,5.8,-,N/A,Fog,Shallow Fog,220,2012-12-18 08:54:00
4:54 AM,48.9,48.0,97,29.64,8.0,SW,6.9,-,N/A,,Clear,230,2012-12-18 09:54:00
5:49 AM,51.8,50.0,94,29.65,9.0,SW,8.1,-,N/A,,Overcast,220,2012-12-18 10:49:00
5:54 AM,51.1,50.0,96,29.65,9.0,SW,9.2,-,N/A,,Overcast,230,2012-12-18 10:54:00
6:18 AM,51.8,50.0,94,29.66,8.0,SW,8.1,-,N/A,,Overcast,230,2012-12-18 11:18:00
6:54 AM,52.0,50.0,93,29.66,8.0,WSW,8.1,-,N/A,,Overcast,240,2012-12-18 11:54:00
7:54 AM,52.0,50.0,93,29.68,6.0,West,9.2,-,0.00,,Overcast,270,2012-12-18 12:54:00
8:54 AM,52.0,50.0,93,29.69,7.0,WSW,6.9,-,0.00,,Mostly Cloudy,240,2012-12-18 13:54:00
9:54 AM,54.0,48.0,80,29.71,10.0,WNW,13.8,19.6,N/A,,Scattered Clouds,300,2012-12-18 14:54:00
10:54 AM,55.9,39.0,53,29.72,10.0,WNW,18.4,-,N/A,,Scattered Clouds,300,2012-12-18 15:54:00
11:54 AM,57.0,36.0,45,29.72,10.0,NW,15.0,27.6,N/A,,Scattered Clouds,310,2012-12-18 16:54:00
12:54 PM,55.9,33.1,42,29.73,10.0,WNW,24.2,31.1,N/A,,Scattered Clouds,300,2012-12-18 17:54:00
1:54 PM,57.0,32.0,39,29.75,10.0,WNW,19.6,31.1,N/A,,Scattered Clouds,300,2012-12-18 18:54:00
2:54 PM,55.9,28.9,36,29.76,10.0,WNW,19.6,28.8,N/A,,Partly Cloudy,300,2012-12-18 19:54:00
3:54 PM,55.9,28.9,36,29.78,10.0,NW,16.1,-,N/A,,Partly Cloudy,320,2012-12-18 20:54:00
4:54 PM,53.1,30.0,41,29.81,10.0,NW,11.5,-,N/A,,Clear,310,2012-12-18 21:54:00
5:54 PM,48.0,30.0,50,29.83,10.0,NW,5.8,-,N/A,,Clear,310,2012-12-18 22:54:00
6:54 PM,45.0,30.0,56,29.87,10.0,WNW,8.1,-,N/A,,Clear,290,2012-12-18 23:54:00
7:54 PM,44.1,30.0,58,29.89,10.0,WNW,5.8,-,N/A,,Clear,300,2012-12-19 00:54:00
8:54 PM,41.0,28.9,62,29.90,10.0,WNW,4.6,-,N/A,,Clear,300,2012-12-19 01:54:00
9:54 PM,39.9,30.0,68,29.90,10.0,SW,4.6,-,N/A,,Clear,220,2012-12-19 02:54:00
10:54 PM,37.0,28.9,73,29.89,10.0,SSW,8.1,-,N/A,,Clear,210,2012-12-19 03:54:00
11:54 PM,39.0,28.9,67,29.88,10.0,WSW,4.6,-,N/A,,Clear,240,2012-12-19 04:54:00